Starlink 3658

operational
NORAD ID: 52107 Int'l Des: 2022-029 Owner: SPXS Country: US Constellation: starlink
LEOCIRCULAR

Über Starlink 3658

Beschreibung wird geladen...

Live-Position

3D-Globus wird geladen...

Nächste Überflüge

Höhenverlauf

Altitude vs Time

uPlot chart will show altitude changes over time

Zweizeiliger Elementsatz

1 52107U 22029V 25304.72319110 .00003051 00000-0 20971-3 0 9999
2 52107 53.2163 298.0761 0001576 90.4950 269.6222 15.08837139201317
Epoch: 31. Okt. 2025 • Age: 23 hours

Aktueller Status

Höhe 543.5 km
Geschwindigkeit 7.59 km/s
Subsatellitenpunkt -13.22°S, 164.6°W
Startdatum 19. März 2022
Alter 3.6 years
Typ internet

Technische Details

Klassifizierung Payload
Masse 297.00 kg
Trockenmasse 275.00 kg
Gesamtmasse 297.00 kg
Länge 0.20 m
Durchmesser 2.80 m
Spannweite 9.00 m
Form Box + pan
Hersteller SPXS
Bus-Typ Starlink
Phasenstatus In Orbit
Besitzer/Staat SPXS/US

Große Konstellationen

Loading constellations...